www.pogodaiklimat.ru

Погода и климат >> Архив погоды >> Россия >> Нижегородская область >> Арзамас


ПОГОДА в Арзамасе

АРХИВ ПОГОДЫ в Арзамасе

Время (UTC), дата Ветер
(напр.,м/с)
 
Видим.   Явления Облачность Т
(С)
Тd
(С)
f
(%)
Тe
(С)
Тes
(С)
Комфортность P
(гПа)
Po
(гПа)
Тmin
(С)
Tmax
(С)
R
(мм)
R24
(мм)
S
(см)
03 17.04 В 2-4
{5}
20 км ясно -1.2 -8.9 56 -4 -4 холодно 1032.8 1017.0 -1.3
06 17.04 В 4-7
{9}
20 км ясно +1.0 -14.0 32 -3 +2 холодно 1035.1 1019.3
09 17.04 СВ 4-8
{8}
20 км 3/0
[Ci fib]
+4.5 -15.7 21 +1 +9 опасность
простуды
1035.0 1019.3
12 17.04 СВ 4-7
{8}
20 км 3/0
[Ci fib]
+6.5 -19.5 14 +4 +9 прохладно 1033.8 1018.2
15 17.04 В 3-4
{7}
20 км 8/0
[Ac cast Ci]
+5.5 -19.0 15 +3 +4 прохладно 1032.8 1017.3 +6.9
18 17.04 В 2-3
{4}
4000 м 8/0
[Ac cast]
-0.5 -11.9 42 -3 -3 очень
холодно
1033.2 1017.4
21 17.04 штиль 0
{3}
4000 м ясно -6.4 -9.2 80 -7 -7 очень
холодно
1033.5 1017.3
00 18.04 СВ 1-1
{1}
4000 м 4/0
[Ac trans]
-8.0 -9.8 87 -10 -10 очень
холодно
1032.0 1016.7
03 18.04 штиль 0
{1}
20 км 9/0
[Ac trans Cs]
-6.1 -7.6 89 -7 -7 очень
холодно
1032.4 1016.2 -8.8
06 18.04 Ю 1-3
{3}
20 км 8/0
[Ac trans Cs]
+3.8 -10.6 34 +3 +8 по сезону 1031.2 1015.6
09 18.04 ЮВ 2-3
{4}
20 км 10/0
[Ci fib]
+7.3 -17.1 16 +6 +16 опасность
простуды
1030.2 1014.8
12 18.04 ЮЗ 2-4
{5}
20 км 10/0
[Ci fib]
+9.2 -17.1 14 +9 +14 по сезону 1029.1 1013.8
15 18.04 ЮЗ 1-2
{4}
20 км 10/0
[Ci fib]
+8.3 -17.1 15 +9 +9 по сезону 1028.6 1013.2 +9.3
18 18.04 СВ 2-2
{3}
4000 м 8/0
[Ci fib]
+1.3 -11.5 38 -1 -1 холодно 1029.8 1014.1
21 18.04 штиль 0
{2}
4000 м 6/0
[Ci fib]
-4.6 -8.5 74 -5 -5 очень
холодно
1030.9 1014.8
00 19.04 В 2-2
{2}
4000 м 6/0
[Ci fib]
-4.8 -8.8 74 -9 -9 очень
холодно
1031.2 1015.1
03 19.04 З 1-1
{2}
20 км ясно -6.2 -7.7 89 -9 -8 очень
холодно
1031.6 1015.4 -7.8
06 19.04 СЗ 1-3
{3}
20 км ясно +6.3 -10.6 29 +6 +14 по сезону 1031.1 1015.6
09 19.04 С 2-5
{8}
20 км ясно +10.4 -12.7 18 +10 +22 опасность
простуды
1029.8 1014.5
12 19.04 З 3-5
{7}
20 км 3/0
[Ci fib]
+12.3 -11.7 17 +11 +17 по сезону 1028.0 1012.8
15 19.04 СЗ 2-5
{7}
20 км 3/0
[Ci fib]
+11.3 -10.3 21 +11 +12 тепло 1026.9 1011.8 +12.6
18 19.04 штиль 0
{5}
4000 м ясно +3.1 -7.4 46 +3 +3 по сезону 1027.5 1012.0
21 19.04 СВ 1-2
{4}
4000 м ясно -2.3 -6.3 74 -4 -4 холодно 1027.7 1011.8
00 20.04 штиль 0
{2}
4000 м ясно -5.6 -7.4 87 -7 -7 очень
холодно
1027.3 1011.2
03 20.04 штиль 0
{1}
20 км 1/0
[Ci fib]
-5.4 -6.8 90 -6 -6 очень
холодно
1026.9 1010.8 -6.8
06 20.04 ЮЗ 1-1
{2}
20 км 3/0
[Cc]
+8.0 -4.7 40 +8 +16 тепло 1026.1 1010.8
09 20.04 СЗ 2-4
{6}
20 км 3/0
[Ci fib]
+12.2 -5.7 28 +12 +23 опасность
простуды
1025.5 1010.4
12 20.04 З 2-4
{6}
20 км 3/0
[Ci fib]
+14.5 -7.8 21 +15 +22 тепло 1024.7 1009.7
15 20.04 З 1-2
{4}
20 км 3/0
[Ci fib]
+14.2 -8.6 20 +15 +16 тепло 1024.5 1009.5 +14.7
18 20.04 В 1-2
{3}
4000 м ясно +6.0 -4.9 45 +6 +6 по сезону 1026.1 1010.7
21 20.04 В 2-3
{3}
4000 м ясно +1.4 -5.7 59 -1 -1 прохладно 1027.0 1011.4
00 21.04 В 1-1
{3}
4000 м ясно -2.8 -4.8 86 -5 -5 холодно 1027.5 1011.6
03 21.04 штиль 0
{4}
20 км 3/0
[Ci fib]
-2.5 -4.5 86 -4 -3 холодно 1028.3 1012.4 -4.2
06 21.04 штиль 0-5
{5}
50 км ?/? +13.2 -6.7 24 +13 +13 тепло 1027.9 1090.2
09 21.04 ЮВ 2-4
{7}
20 км 4/3 600 м
[Cu hum Ci fib]
+15.4 -5.7 23 +16 +24 тепло 1027.4 1012.5
12 21.04 СВ 2-4
{6}
20 км 3/3 600 м
[Cu hum]
+16.4 -5.7 21 +17 +22 тепло 1026.4 1011.5
15 21.04 СВ 2-4
{6}
20 км 4/4 300 м
[Sc diur, vesp]
+16.1 -7.1 20 +16 +17 тепло 1025.6 1010.7 +17.4
18 21.04 СВ 1-2
{4}
4000 м ясно +5.2 -3.8 52 +5 +5 по сезону 1027.0 1011.6
21 21.04 штиль 0
{2}
4000 м ясно +0.2 -2.8 80 -1 -1 прохладно 1027.8 1012.1
00 22.04 штиль 0
{1}
4000 м ясно -2.2 -4.0 87 -3 -3 прохладно 1028.5 1012.6
03 22.04 штиль 0
{1}
20 км местами туман поземный 8/0
[Ac trans Ci fib]
-2.0 -3.5 89 -3 -2 холодно 1029.0 1013.1 -3.3
06 22.04 СЗ 1-1
{2}
20 км 4/0
[Ac trans]
+10.8 -0.7 45 +11 +17 тепло 1028.4 1013.2
09 22.04 СЗ 4-7
{8}
20 км 8/0
[Ac As]
+17.0 -4.7 22 +17 +20 тепло 1027.2 1012.4
12 22.04 С 4-9
{9}
20 км 10/0
[Ac As Ci fib]
+17.4 -3.6 24 +17 +19 тепло 1025.9 1011.1
15 22.04 СЗ 3-5
{9}
20 км 10/0
[Ac As Ci fib]
+15.9 -3.3 27 +16 +16 тепло 1025.2 1010.3 +18.0
18 22.04 ЮЗ 1-1
{6}
4000 м ясно +4.7 -1.3 65 +4 +4 по сезону 1025.8 1010.4
21 22.04 штиль 0
{2}
4000 м ясно +0.1 -2.3 84 -1 -1 прохладно 1026.1 1010.4
00 23.04 штиль 0
{1}
4000 м местами туман поземный ясно -2.3 -3.8 89 -3 -3 прохладно 1026.4 1010.5
03 23.04 штиль 0
{1}
20 км дымка ясно -2.3 -3.5 91 -4 -3 холодно 1026.3 1010.4 -3.9
06 23.04 СЗ 1-2
{2}
20 км дымка 10/0
[Ac und]
+10.0 +0.6 52 +10 +13 тепло 1025.5 1010.3
09 23.04 З 4-7
{7}
20 км 10/0
[Ac und]
+15.1 -2.7 29 +14 +17 тепло 1024.5 1009.6
12 23.04 СЗ 4-8
{10}
20 км 9/6 300 м
[Cu med, cong Ac trans Ci fib]
+17.4 -2.2 26 +17 +18 тепло 1023.1 1008.3
15 23.04 С 3-6
{8}
20 км 8/4 300 м
[Cu med, cong Ac trans Ci fib]
+16.8 -1.4 29 +17 +17 тепло 1022.1 1007.4 +17.7
18 23.04 штиль 0
{6}
4000 м 4/0
[Ac trans Ci fib]
+10.3 -1.2 45 +10 +10 тепло 1023.8 1008.6
21 23.04 штиль 0
{2}
4000 м ясно +3.1 -1.0 74 +2 +2 по сезону 1024.6 1009.1

 

Местоположение метеостанции Арзамас (Нижегородская область, Россия): широта 55.37 долгота 43.78 высота над уровнем моря 124 м.

В архиве по умолчанию представлена погода в Арзамасе за последнюю неделю. Архивные данные за месяц целиком и за предыдущие месяцы, начиная с января 2011 года, Вы можете получить, выбрав интересующий диапазон дат из раскрывающегося списка и нажав кнопку "Ввод!".


*Определитесь, кто Вы:
робот инопланетянин человек

Внимание! Время в таблицах - всемирное. Для получения местного времени необходимо прибавить поправку, которая равна 3 ч.

Смотрите также архив погоды в соседних городах и на ближайших метеорологических станциях:

Погода в Дальнем Константиново (Нижегородская область, Россия) (51 км)
Погода в Лукоянове (Нижегородская область, Россия) (59 км)
Погода в Павлово (Нижегородская область, Россия) (80 км)
Погода в Темникове (Мордовия, Россия) (89 км)
Погода в Нижнем Новгороде аэропорт (Нижегородская область, Россия) (95 км)
Погода в Нижнем Новгороде (Нижегородская область, Россия) (101 км)
Погода в Краснослободске (Мордовия, Россия) (105 км)
Погода в Выксе (Нижегородская область, Россия) (105 км)
Погода в Большом Болдино (Нижегородская область, Россия) (105 км)
Погода в Лысково (Нижегородская область, Россия) (106 км)

Пояснения к столбцам:

Ветер - указаны скорость ветра в м/с - средняя за 10 мин, порывы в срок и между сроками (в фигурных скобках) и направление, откуда дует ветер: С - северный, СВ - северо-восточный, В - восточный, ЮВ - юго-восточный, Ю - южный, ЮЗ - юго-западный, З - западный, СЗ - северо-западный.
Видимость - горизонтальная дальность видимости в метрах или километрах. При видимости от 1 до 10 км при отсутствии осадков обычно наблюдается дымка, при ухудшении видимости до 1 км и менее - туман. В сухую погоду видимость может ухудшаться дымом, пылью или мглою.
Явления - указаны атмосферные явления, наблюдавшиеся в срок или в последний час перед сроком; фигурными скобками обозначены явления, наблюдавшиеся между сроками (за 1-3 часа до срока); квадратными скобками обозначены град или гололедные отложения с указанием их диаметра в мм.
Облачность - указаны через наклонную черту общая и нижняя облачность в баллах и высота нижней границы облаков в метрах; квадратными скобками обозначены формы облаков: Ci - перистые, Cs - перисто-слоистые, Cc - перисто-кучевые, Ac - высококучевые, As - высокослоистые, Sc - слоисто-кучевые, Ns - слоисто-дождевые, Cu - кучевые, Cb - кучево-дождевые. Подробнее классификацию облаков см. в Атласе облаков (PDF).
T - Температура воздуха - температура, измеренная на высоте 2 м над землей.
Td - Температура точки росы - температура, при понижении до которой содержащийся в воздухе водяной пар достигнет насыщения.
f - Относительная влажность воздуха - влажноcть воздуха, измеренная на высоте 2 м над землей.
Te - Эффективная температура - температура, которую ощущает одетый по сезону человек в тени. Характеристика душности погоды. При расчете учитывается влияние влажности воздуха и скорости ветра на теплоощущения человека.
Tes - Эффективная температура на солнце - температура, которую ощущает человек, с поправкой на солнечный нагрев. Характеристика знойности погоды. Зависит от высоты солнца над горизонтом, облачности и скорости ветра. Ночью, в пасмурную погоду, а также при ветре 12 м/с и более поправка равна нулю.
P - Атмосферное давление - приведенное к уровню моря атмосферное давление.
Po - Атмосферное давление - измеренное на уровне метеостанции атмосферное давление.
Tmin - Минимальная температура - минимум температуры воздуха на высоте 2 м над землей.
Tmax - Максимальная температура - максимум температуры воздуха на высоте 2 м над землей.
R - Количество осадков - Количество выпавших осадков за период времени, мм. При наведении курсора мыши на число - период времени, за который выпало указанное количество осадков.
R24 - Количество осадков - Количество выпавших осадков за 24 часа, мм.
S - Снежный покров - Высота снежного покрова, см. При наведении курсора мыши на число - состояние снежного покрова и степень покрытия местности в баллах.